Theta_e
290 291 293 294 295 295 296 297 297 297 296 298 299 301 301 300 299 298 297 296 297 297 296 296 297 299 299 301 300 294 297 295 296 300 303 299 300 294 293 292 293 296 297 293 294 298 301 291 290 294 293 292 294 293
290 290 292 293 294 294 295 296 297 297 298 297 297 299 299 299 299 298 297 296 295 294 294 295 295 296 299 301 302 296 299 294 296 297 295 293 292 289 290 294 289 294 293 293 295 295 291 291 293 294 294 294 293 293
290 290 290 292 293 294 294 296 297 296 297 297 297 297 297 297 298 299 298 297 294 294 294 295 295 295 295 298 300 298 294 296 296 296 291 290 292 290 288 289 288 289 288 290 290 290 290 292 294 294 294 294 294 294
289 289 290 291 293 294 293 295 296 296 297 296 297 298 298 298 298 299 299 298 296 295 290 294 295 295 294 294 297 298 298 297 296 293 290 289 289 290 289 290 291 290 288 287 288 289 290 292 293 294 294 294 294 293
289 289 289 291 292 293 293 293 295 295 296 296 296 297 298 298 297 297 298 298 297 296 293 294 295 295 295 294 294 295 295 296 293 291 288 288 289 288 286 289 288 288 289 289 289 291 292 293 293 293 293 292 292 292
289 289 289 290 290 292 292 293 294 294 294 295 296 296 298 298 297 298 298 298 296 297 296 292 295 295 295 295 294 294 294 293 293 292 289 290 290 291 286 286 291 291 291 292 291 293 293 293 293 293 293 293 292 292
289 289 289 290 290 292 291 291 293 294 294 295 296 296 297 296 296 297 297 297 297 297 296 293 288 294 294 294 293 293 293 293 293 293 290 290 290 291 285 287 293 293 293 292 293 293 292 292 293 293 293 293 292 291
288 288 289 289 290 291 291 291 292 293 294 294 296 296 297 296 297 297 297 296 296 296 296 295 289 290 292 291 291 292 291 292 292 292 291 289 291 292 287 291 293 293 293 293 293 293 293 293 293 293 293 292 291 291
288 288 287 289 290 290 291 290 292 293 294 294 296 296 296 296 294 295 296 296 296 296 294 293 289 287 291 292 292 293 293 291 293 291 291 292 291 292 291 292 292 293 293 293 293 293 292 292 292 292 292 291 291 291
287 289 289 289 289 290 291 290 292 293 295 294 294 294 292 293 293 293 294 293 293 293 294 291 287 282 291 290 289 290 293 289 292 291 291 293 291 292 293 292 293 293 294 293 292 291 291 291 291 292 291 292 291 291
287 288 290 290 290 291 291 293 292 293 294 295 292 291 292 293 292 292 293 292 293 292 293 290 289 286 290 285 288 291 291 292 292 288 289 286 284 293 293 293 293 293 293 293 293 293 292 292 292 291 291 291 291 290
288 290 290 291 290 291 293 294 293 294 294 294 292 291 292 291 291 289 290 289 287 288 285 286 288 290 290 291 287 290 291 290 290 285 287 285 287 292 293 293 293 293 293 293 293 292 292 291 291 290 290 290 289 290
289 291 291 291 291 292 293 294 293 293 292 291 291 291 290 291 291 291 290 284 283 275 286 287 284 289 288 289 285 285 289 289 283 289 288 285 289 291 289 289 290 290 291 291 291 291 290 290 289 289 288 288 287 287
288 289 289 290 292 294 294 293 292 292 291 290 289 289 289 289 286 287 284 278 285 286 286 288 285 285 288 285 288 286 284 281 283 283 283 281 275 281 284 285 287 288 288 289 288 288 287 287 286 285 284 284 283 282
287 287 288 288 288 289 291 291 291 291 289 288 288 286 284 280 279 281 284 286 287 286 287 286 285 288 284 288 289 286 285 285 282 282 275 270 271 275 279 281 282 283 284 284 284 284 284 284 283 282 281 280 279 279
285 286 286 286 287 288 288 288 289 288 288 288 286 279 275 276 273 279 282 285 286 287 289 289 283 286 286 288 289 289 288 287 281 267 268 269 271 273 275 276 277 278 278 279 280 280 280 279 279 279 277 276 275 275
284 283 282 283 285 286 287 288 287 286 285 284 274 278 278 277 278 281 283 285 287 288 286 287 289 289 286 285 285 280 281 271 268 268 269 270 270 272 272 273 274 274 275 275 276 276 276 276 275 274 274 274 273 273
281 281 281 281 281 283 285 285 285 284 278 276 278 274 276 275 275 278 280 283 287 287 288 287 287 287 287 287 280 270 269 268 268 268 268 269 270 271 272 271 272 272 272 272 272 273 273 273 273 273 273 272 272 271
281 281 281 281 280 281 282 282 283 276 272 273 274 275 276 275 275 276 278 280 282 284 285 283 284 277 270 265 263 265 264 264 265 267 267 268 268 269 269 270 270 270 270 271 271 271 271 271 271 270 270 270 269 269
280 280 280 279 279 280 280 278 278 277 268 271 273 273 273 273 274 275 277 278 278 274 266 266 263 260 261 261 262 262 263 264 266 267 266 267 268 268 268 268 269 269 269 269 269 269 269 269 269 269 268 268 268 268
279 279 279 279 280 279 275 272 271 270 271 270 270 271 271 271 271 271 269 271 266 260 262 259 259 260 260 261 262 263 263 264 264 264 264 265 266 266 267 267 267 267 267 267 267 267 267 267 267 266 266 266 266 266
278 278 278 278 277 275 272 271 270 270 271 268 270 270 266 265 266 265 265 262 259 258 258 259 259 260 261 262 262 263 264 264 265 265 265 265 265 266 266 266 266 266 266 266 266 266 266 266 266 265 265 265 265 265
277 277 277 275 274 272 268 270 270 270 267 267 270 268 265 265 266 266 261 259 258 258 258 259 260 261 261 261 262 263 263 264 265 265 265 265 265 265 265 265 265 265 265 265 265 265 265 265 265 265 265 265 264 264
275 273 268 266 267 264 268 267 269 269 268 268 269 267 262 263 265 263 260 259 259 258 259 259 260 261 261 261 262 262 263 263 264 264 264 265 265 265 265 265 264 264 264 265 264 265 265 265 265 264 264 264 264 264
270 261 262 260 262 263 264 265 265 267 266 265 266 265 263 264 263 260 260 258 258 258 258 259 260 260 260 260 261 262 262 263 263 264 263 264 264 264 264 264 264 264 264 264 264 264 264 264 264 264 264 264 264 264
258 257 258 257 259 261 261 264 263 262 263 262 260 261 264 263 261 258 257 257 257 257 258 259 260 260 260 261 261 262 262 263 263 263 263 263 263 263 263 263 263 263 263 263 263 263 263 263 263 264 264 264 264 264
257 256 258 258 258 259 261 261 260 259 259 258 257 262 263 261 258 256 257 257 258 259 259 260 260 260 260 261 262 262 263 263 263 263 263 262 262 262 262 263 263 263 263 263 263 263 263 263 263 263 263 263 263 263
255 255 255 256 257 256 258 257 255 254 255 253 256 258 258 257 255 257 257 258 259 259 260 260 260 260 260 260 261 262 263 262 262 262 262 262 262 262 262 261 262 262 262 262 263 263 263 263 263 263 263 263 263 262
256 256 256 258 257 254 251 253 252 252 252 252 257 258 257 257 257 257 257 258 259 259 259 259 259 259 259 260 260 261 261 261 262 262 261 261 262 261 261 262 262 262 262 263 262 262 262 262 262 262 262 262 262 262
255 255 257 256 255 254 253 253 254 254 254 255 257 257 256 256 257 258 258 258 258 258 258 258 259 259 259 260 260 259 259 260 260 259 259 260 260 261 261 261 261 261 261 261 261 262 261 261 261 261 261 261 261 261
256 257 257 256 254 255 256 257 258 258 258 258 258 257 257 257 257 257 258 258 258 258 259 258 258 258 258 258 258 259 260 259 259 259 258 258 259 259 259 259 259 259 259 259 259 259 259 259 259 259 260 260 259 259
257 255 256 257 255 256 257 259 259 259 260 260 259 259 259 259 257 257 256 257 258 258 257 257 257 257 257 257 257 257 256 257 257 257 257 257 257 257 257 257 257 257 256 256 256 257 257 257 257 257 257 257 257 257
257 257 256 256 256 256 257 257 258 259 260 260 259 259 259 259 258 257 256 256 256 257 256 256 255 256 256 256 256 256 255 256 256 255 255 255 255 255 255 254 254 254 254 254 255 255 255 255 255 255 255 255 255 256
Wind_Speed
23 29 28 25 26 28 29 26 23 23 23 25 23 22 21 16 12 11 7 6 9 4 6 11 8 6 8 10 5 8 6 1 2 3 4 3 3 5 3 3 7 7 8 4 2 3 10 12 5 8 5 7 15 17
25 26 28 26 26 28 29 27 27 26 25 25 27 26 20 20 20 16 13 9 9 6 3 11 13 12 12 13 17 21 4 7 8 3 1 3 2 1 3 3 1 2 6 6 10 6 2 28 5 15 16 19 17 19
25 25 30 28 26 28 29 26 27 26 25 26 25 26 26 22 24 25 22 17 14 8 7 13 11 15 20 16 15 12 7 10 10 7 4 2 3 3 4 5 2 4 4 3 3 3 6 21 21 10 19 18 17 18
26 27 28 30 27 24 27 27 26 25 26 26 28 24 27 26 23 31 30 24 20 5 1 4 9 17 17 21 17 17 6 15 14 10 4 3 3 5 3 2 4 5 9 6 1 1 4 13 22 21 19 19 21 21
25 24 25 26 25 24 26 31 27 24 26 27 26 28 30 24 22 25 28 25 24 14 5 3 6 9 14 22 23 16 12 18 11 4 2 2 5 4 1 2 4 9 7 4 4 13 13 14 26 22 24 25 23 21
24 25 22 23 25 25 23 25 28 26 24 24 25 23 26 26 23 20 14 33 30 30 6 1 3 4 15 15 24 22 19 14 10 8 3 5 5 4 3 4 11 15 12 17 6 13 19 20 19 22 21 23 23 22
22 24 23 23 24 24 23 24 29 27 24 26 28 24 25 22 27 23 6 8 23 35 8 2 3 6 14 14 14 15 20 9 8 5 4 7 5 11 3 5 17 10 16 17 23 22 17 26 24 26 24 25 22 21
17 22 24 24 23 24 26 27 26 29 27 26 22 24 25 22 28 25 31 11 21 26 7 3 1 2 11 6 4 7 9 9 7 6 4 3 7 3 3 17 23 27 24 25 30 29 31 32 30 31 29 27 24 24
22 23 31 29 26 26 27 28 28 29 27 23 21 25 23 19 6 18 18 25 23 13 5 3 6 4 11 5 6 5 6 2 6 4 4 9 4 6 13 21 22 30 31 34 32 29 30 31 35 34 34 31 29 31
23 19 24 31 29 27 29 30 31 32 32 24 21 11 6 13 16 15 7 4 4 6 4 2 7 3 8 3 2 5 5 3 4 5 10 4 3 28 35 22 27 31 29 28 32 29 31 30 33 32 31 31 30 29
28 21 21 24 26 27 25 30 36 31 30 29 8 5 21 27 8 5 5 3 2 3 7 6 6 4 11 3 3 5 3 3 4 4 6 2 3 20 38 33 42 42 40 41 42 39 35 34 35 32 29 25 22 24
29 10 14 17 21 25 22 35 36 41 27 27 15 21 21 6 4 4 3 2 2 5 5 4 8 6 9 6 3 5 3 2 5 6 3 3 7 24 21 22 29 33 35 36 35 33 34 33 31 30 27 25 23 24
21 10 9 14 24 25 31 37 36 31 25 26 8 8 8 4 4 7 5 2 1 3 10 7 2 7 5 4 3 3 4 5 5 3 4 6 13 14 12 15 17 19 23 25 26 25 24 23 21 20 20 19 17 16
12 21 21 25 20 31 36 31 40 33 20 4 4 5 3 3 3 3 5 4 5 7 22 16 5 4 4 2 3 4 3 4 2 3 7 2 11 11 10 12 14 15 15 17 17 17 15 13 12 11 11 11 11 11
17 15 21 21 23 24 24 29 30 21 6 4 4 3 3 1 3 4 8 8 6 10 22 7 5 4 1 3 3 3 3 4 6 5 2 10 14 13 10 8 8 7 8 9 8 8 8 8 8 8 9 8 8 7
12 16 19 13 11 12 12 11 14 8 5 4 3 3 3 3 3 1 6 7 8 20 10 4 3 3 3 3 4 5 6 5 3 2 9 13 12 12 11 9 7 3 0 2 5 6 7 8 8 9 11 10 9 7
8 15 10 11 8 7 6 9 6 5 5 3 2 6 4 4 3 4 5 7 18 9 2 2 4 4 2 3 2 3 3 2 4 10 10 12 14 12 10 8 6 5 4 5 6 8 9 9 9 8 7 8 7 5
12 9 6 7 5 5 6 5 5 4 5 5 1 3 6 7 5 4 5 10 7 5 8 3 5 2 2 2 0 2 6 8 5 8 11 11 9 8 6 4 4 4 5 7 8 9 10 10 9 8 7 5 4 3
3 2 5 4 3 3 3 3 4 4 4 5 6 7 7 8 12 9 6 7 9 8 7 3 4 2 2 3 2 4 7 9 9 13 10 9 7 5 4 5 5 5 5 7 8 8 8 9 7 6 5 4 3 2
8 7 5 3 5 4 3 5 4 5 2 3 5 6 6 6 6 10 10 8 8 6 8 5 3 2 3 3 5 7 8 9 10 9 3 7 5 3 2 3 4 5 6 7 8 8 7 6 5 4 3 2 1 1
4 6 6 5 5 6 6 4 6 5 4 5 5 5 5 6 7 8 10 11 11 8 3 6 5 6 5 4 3 5 5 7 6 5 6 6 4 2 3 4 5 6 5 6 6 5 4 4 3 2 2 1 1 1
6 4 4 4 4 5 7 7 5 4 4 4 4 5 6 3 6 7 6 15 7 7 7 8 11 9 5 3 3 4 5 4 5 5 3 3 2 3 4 4 4 3 3 3 3 4 3 3 3 2 1 1 2 2
11 7 4 5 4 6 3 4 4 4 4 2 3 3 3 3 4 5 7 6 5 13 12 11 11 6 4 5 6 6 5 5 5 4 5 5 4 5 4 4 3 3 3 3 4 3 2 2 2 2 2 2 2 3
10 6 8 7 10 2 3 5 4 4 4 3 3 3 3 2 3 6 4 4 9 15 14 12 11 6 6 7 8 8 7 7 8 7 7 7 6 6 6 6 6 5 4 4 3 3 3 4 4 4 4 4 4 4
5 11 8 7 10 6 5 4 4 3 3 4 3 3 2 3 3 4 3 6 15 16 15 12 12 12 11 11 11 10 10 9 10 10 10 10 9 8 7 6 5 5 5 5 5 6 6 6 6 6 6 6 7 7
8 10 7 6 6 4 4 3 5 4 3 3 4 3 3 3 4 4 2 11 12 14 14 13 12 13 14 12 11 10 10 8 8 7 8 7 7 6 6 5 5 6 6 6 7 7 8 9 9 9 9 9 10 11
6 5 8 9 5 4 3 6 6 4 5 5 3 4 3 5 4 2 7 11 11 12 11 10 11 12 13 13 10 9 8 7 7 8 8 7 7 9 9 8 9 9 9 9 9 10 10 10 10 11 11 12 13 14
6 11 6 12 7 11 4 4 5 5 4 7 2 6 4 3 0 6 6 9 8 9 11 12 12 13 15 15 15 13 9 8 6 5 6 6 5 6 11 11 11 11 11 11 11 12 12 13 13 13 14 15 15 14
7 17 7 5 6 8 8 5 4 4 7 3 2 3 3 5 8 11 13 15 15 15 15 14 12 10 9 10 11 12 11 11 9 8 9 9 8 9 12 12 12 13 14 14 13 15 15 15 15 17 18 19 19 20
10 16 5 6 5 5 8 7 7 11 15 16 18 25 23 21 19 18 19 19 19 19 17 15 13 13 14 14 13 13 13 12 13 16 18 18 20 20 20 19 19 19 20 20 21 20 19 20 20 21 22 24 25 26
11 8 5 8 5 5 9 13 17 20 22 22 21 22 19 16 24 22 19 16 15 14 14 15 15 15 17 19 21 23 22 18 20 21 22 24 25 25 24 23 23 22 23 24 23 24 24 24 23 24 24 25 25 25
11 9 3 3 2 5 5 5 6 7 7 8 8 9 7 4 4 5 23 26 25 20 18 16 18 19 22 24 23 21 21 22 24 25 26 25 25 25 24 24 23 24 25 25 25 26 27 28 29 28 28 28 28 28
5 8 8 4 3 4 7 4 2 3 2 2 3 3 4 3 3 4 4 18 31 23 18 18 21 24 21 20 20 18 19 20 20 20 20 19 19 20 20 19 22 24 26 27 28 28 28 28 29 29 29 30 30 30
Wind_Direction
280 259 266 268 251 244 252 244 244 239 235 233 234 229 228 228 237 223 228 196 192 205 178 194 192 162 151 166 146 148 107 121 95 157 169 174 164 208 149 154 173 158 166 198 122 228 267 162 107 172 194 146 162 169
271 266 257 265 254 243 249 246 237 238 233 233 231 235 232 233 231 226 222 206 187 214 249 215 212 213 219 211 170 169 176 162 154 117 169 108 141 160 140 216 332 236 193 183 190 202 85 176 186 194 165 172 184 194
278 272 255 258 260 246 243 241 233 238 236 231 232 235 233 231 222 224 225 206 187 220 260 253 241 230 225 213 205 162 210 174 173 160 146 146 181 132 162 230 127 254 164 201 99 196 200 198 214 214 219 231 237 236
271 269 253 251 251 251 244 240 229 233 234 232 231 233 230 223 217 219 221 213 204 150 159 265 244 228 222 217 206 206 202 181 167 159 124 142 166 195 201 161 177 197 140 154 250 247 189 241 228 222 234 244 247 247
281 274 254 246 247 250 240 243 231 229 231 236 238 232 221 215 216 219 228 226 224 203 196 262 263 234 218 212 215 214 204 184 161 134 110 178 140 123 337 54 252 179 172 164 207 199 186 212 218 239 244 246 252 256
273 270 258 250 245 242 245 240 239 235 233 235 235 235 207 208 204 204 207 221 226 220 177 153 268 221 201 199 209 210 203 192 182 148 166 178 159 142 142 205 246 212 166 208 205 242 232 252 259 262 251 259 256 255
266 263 258 251 242 240 241 235 232 235 229 235 229 223 224 220 217 201 194 213 212 203 184 175 276 194 193 182 191 194 197 194 199 172 181 147 184 179 120 223 249 238 238 235 250 248 242 249 250 265 266 268 264 257
270 265 256 249 241 244 236 233 229 227 228 228 216 212 207 200 201 209 219 212 182 184 187 173 204 142 170 155 124 164 164 173 188 175 143 138 132 133 243 247 261 256 259 257 254 246 251 266 271 269 267 267 257 258
293 288 248 240 242 238 240 231 219 213 209 212 207 183 197 193 150 188 186 171 179 191 182 145 148 202 165 142 140 141 153 130 181 197 187 153 165 212 231 230 233 247 242 251 264 264 266 257 263 267 265 263 260 267
307 290 256 244 240 236 235 233 216 206 199 197 183 171 149 153 141 131 144 169 159 183 171 109 136 155 163 136 119 121 165 181 190 217 146 202 218 238 241 242 248 256 260 261 253 253 253 252 261 269 264 272 274 270
309 289 250 236 222 229 234 213 202 188 183 178 137 110 132 133 118 132 149 154 150 136 163 150 167 134 188 127 154 195 169 174 178 226 166 192 254 241 246 240 250 255 259 262 264 270 273 276 279 283 283 281 272 266
323 279 222 216 217 228 193 172 173 174 177 176 146 129 134 143 133 129 171 109 128 197 182 152 188 156 161 166 111 173 164 145 216 146 137 208 246 248 252 247 255 258 262 269 276 279 280 278 278 278 275 271 265 260
5 61 233 229 202 218 184 163 177 182 142 127 121 148 144 150 160 171 146 274 215 179 169 165 146 144 130 151 100 127 157 205 113 184 213 225 249 263 271 275 274 267 264 267 268 269 271 272 270 267 262 262 250 237
11 53 62 69 168 154 156 154 155 151 138 100 125 127 160 143 201 166 175 182 217 187 161 150 127 144 140 105 145 139 196 96 166 194 227 260 4 326 314 294 290 284 277 277 274 272 269 263 252 238 228 223 218 208
56 50 50 67 84 88 115 139 159 151 88 96 102 141 175 140 73 128 142 144 161 166 153 112 88 123 152 156 178 115 156 211 195 223 237 345 348 340 334 323 302 291 290 281 267 256 241 223 208 196 187 185 184 185
79 69 51 56 62 92 110 117 127 115 75 99 82 90 102 73 325 183 153 124 144 156 138 110 131 129 203 176 178 193 171 208 249 339 340 343 353 356 358 357 351 347 335 213 189 178 173 168 166 168 167 164 166 167
87 70 47 54 59 74 121 121 78 69 77 68 24 72 57 62 136 118 139 135 153 175 148 128 177 198 91 135 196 8 170 236 298 337 345 351 356 1 7 21 35 58 91 122 142 144 147 145 146 149 151 152 154 158
77 74 59 56 49 70 85 61 73 73 68 40 73 50 69 58 69 99 106 138 145 161 149 170 129 137 145 160 174 31 33 352 0 2 356 357 356 354 3 36 65 94 119 131 137 141 138 139 145 148 148 152 156 162
91 28 343 349 29 115 91 70 72 95 83 93 93 90 83 86 74 75 98 104 106 111 129 74 99 75 82 39 12 360 358 7 335 341 346 354 359 17 38 77 95 109 121 128 126 130 132 135 137 140 143 151 158 179
82 67 53 67 138 106 86 62 82 89 93 93 97 80 84 82 87 58 63 71 79 49 42 38 49 45 16 348 338 328 333 340 344 349 343 0 359 355 30 95 108 114 127 131 130 127 131 135 135 142 148 154 167 241
110 88 82 94 75 70 78 59 62 66 72 82 90 63 66 65 47 40 36 32 58 36 49 37 11 356 348 345 353 352 351 343 341 326 312 322 355 39 84 103 114 121 130 130 124 126 123 128 123 111 84 39 7 354
143 131 103 90 72 67 72 51 76 82 73 84 65 61 51 42 35 28 39 48 55 26 360 346 347 351 7 31 26 17 10 8 9 5 16 37 71 94 107 111 111 118 127 121 114 117 112 93 79 70 50 358 330 325
128 125 77 48 80 50 32 44 65 38 76 41 73 68 36 53 58 36 73 62 67 4 359 356 356 0 52 46 36 32 34 34 40 49 55 83 84 101 108 96 94 91 89 84 80 70 59 46 12 339 318 313 302 306
115 61 35 38 30 42 28 37 48 61 60 43 59 81 31 42 57 62 72 56 2 6 17 20 27 61 65 59 60 61 62 65 67 74 82 82 85 88 89 87 81 73 61 52 30 4 345 332 314 303 297 289 292 301
84 15 21 8 18 21 30 21 14 44 65 24 76 60 14 24 74 58 65 8 5 14 22 36 46 57 66 67 66 65 70 75 79 78 77 79 76 74 73 67 56 42 27 10 359 341 336 323 311 305 298 293 295 302
66 17 37 356 6 30 349 40 29 17 13 64 39 342 36 65 64 55 35 350 355 9 18 33 47 60 59 55 55 60 63 70 70 68 67 62 58 53 48 32 19 10 355 343 333 328 319 307 305 301 293 289 291 294
47 351 5 20 353 341 45 43 35 48 51 28 354 8 38 63 59 341 359 1 6 21 34 48 54 53 51 49 47 41 40 51 60 62 59 60 60 48 33 21 11 359 352 345 337 329 322 314 310 308 302 293 290 290
53 25 13 340 33 32 43 42 33 25 360 349 318 37 71 52 99 351 359 23 45 55 62 67 69 70 67 57 51 50 56 54 46 36 37 32 8 358 2 353 344 339 336 330 322 315 312 312 311 307 301 297 294 291
26 352 360 26 49 48 42 27 11 354 334 359 47 68 82 61 68 73 73 77 79 82 81 78 73 63 52 39 32 32 34 34 28 22 11 351 340 331 329 326 322 318 314 311 309 308 306 305 305 298 293 294 294 292
357 2 20 46 45 38 15 28 35 55 66 81 99 104 92 77 80 84 80 74 69 65 60 56 49 41 34 26 22 23 6 350 345 346 341 332 325 321 319 316 312 310 307 304 303 300 296 293 290 286 286 287 289 290
352 3 60 50 69 38 52 69 77 81 89 97 105 102 104 96 70 65 61 53 44 39 34 28 19 13 7 359 352 343 335 329 321 319 315 311 310 308 307 306 305 305 301 301 302 302 301 299 298 296 293 292 291 290
18 29 54 80 59 46 49 77 77 96 91 90 84 99 99 94 82 62 36 33 27 20 17 6 359 352 342 331 327 322 314 311 312 313 313 311 309 308 307 307 306 300 300 300 299 298 299 299 300 299 298 296 295 294
36 40 50 59 41 27 17 23 74 101 102 74 56 79 83 82 106 189 343 7 8 1 357 350 341 340 340 337 332 325 319 321 321 320 317 317 315 316 315 313 301 301 301 300 300 300 299 298 297 297 297 296 296 296